Tracking 22130 objects as of 21-Jan-2021
HD Live streaming from Space Station
objects crossing your sky now

COSMOS 1867 COOLANT

Track COSMOS 1867 COOLANT now!
10-day predictions


NORAD ID: 39674
Int'l Code: 1987-060AM
Perigee: 780.5 km
Apogee: 805.6 km
Inclination: 65.0 °
Period: 100.6 minutes
Semi major axis: 7164 km
RCS: Unknown
Launch date: July 10, 1987
Source: Commonwealth of Independent States (former USSR) (CIS)
Launch site: TYURATAM MISSILE AND SPACE COMPLEX (TTMTR)

Note: This is SATELLITE DEBRIS
aabbcc
Your satellite tracking list
Your tracking list is empty




NASA's NSSDC Master Catalog

Two Line Element Set (TLE):
1 39674U 87060AM  21020.63564896  .00000023  00000-0  46163-4 0  9991
2 39674  65.0106 148.8212 0017478 284.0080  75.9061 14.31743838353926
Source of the keplerian elements: AFSPC